Tracking 19817 objects as of 19-Aug-2019
HD Live streaming from Space Station
objects crossing your sky now

COSMOS 778

Track COSMOS 778 now!
10-day predictions
COSMOS 778 is classified as:


NORAD ID: 8419
Int'l Code: 1975-103A
Perigee: 974.5 km
Apogee: 1,005.9 km
Inclination: 83.0 °
Period: 104.8 minutes
Semi major axis: 7361 km
RCS: 2.3884 m2 (large)
Launch date: November 4, 1975
Source: Commonwealth of Independent States (former USSR) (CIS)
Launch site: PLESETSK MISSILE AND SPACE COMPLEX (PKMTR)
aabbcc
Your satellite tracking list
Your tracking list is empty




NASA's NSSDC Master Catalog

Two Line Element Set (TLE):
1  8419U 75103A   19230.81096240 +.00000036 +00000-0 +21590-4 0  9993
2  8419 082.9775 332.5586 0021311 338.5753 134.2495 13.74605229195884
Source of the keplerian elements: AFSPC